COSMOS 371

Satellite information

Favourite Embed

Satellite Type and Status

PAYLOADIN ORBIT

Key statistics

Satellite COSMOS 371 at a glance.

Uptime

19930

Days in orbit

Revolutions

≈ 14.6

Per day

Orbit

LEO

Low Earth Orbit

Inclination

74.0

Latest

Satellite identification and parameters

Extended collection of information and parameters for COSMOS 371.

Object identification

Identified? True

Debris? False

Object name: COSMOS 371

International designator: 1970-083A

Object number (NORAD): 4578

Object ID (CCSDS): 4578

Country: COMMONWEALTH OF INDEPENDENT STATES (CIS)

Current information (Y/N): Y

RCS size: LARGE

Orbital parameters

Period: 98.935 minutes

Inclination: 73.9984 deg

SMA: 7085.891 km

Apoapsis: 710.139 km

Periapsis: 705.374 km

RAAN: 227.7341 deg

Eccentricy: 0.0003362

Argument of periapsis: 299.8512 deg

Mean anomaly: 60.2317 deg

Mean motion: 14.55496012 rev/day

Mean motion (dot): 0.00000495 rev/day2

B* drag term: 0.00012029 1/REarth

Two-line elements (TLE)

Creation date: May 6, 2025, 3:54 a.m.

Reference frame: TEME

Reference center: EARTH

Epoch: May 5, 2025, 3:48 p.m. UTC

TLE line 0: 0 COSMOS 371

TLE line 1: 1 04578U 70083A 25125.65883276 .00000495 00000-0 12029-3 0 9997

TLE line 2: 2 04578 73.9984 227.7341 0003362 299.8512 60.2317 14.55496012886291

Live tracking on map

Real-time ground track for satellite COSMOS 371.

In-orbit conjunctions

A list of the most updated potential collisions computed for object COSMOS 371.

Target Orbit TCA Probability of collision Miss distance Type
COSMOS 2251 DEB LEO 2025-04-29 03:29:42 0.0001474415 960.0 (m) DEBRIS
CZ-6A DEB SSO 2024-11-11 21:42:35 0.0003842197 543.0 (m) DEBRIS
CZ-4 DEB SSO 2024-08-29 15:34:23 0.0001389157 220.0 (m) DEBRIS
FENGYUN 1C DEB SSO 2024-07-21 10:17:22 0.0001892605 509.0 (m) DEBRIS
NOAA 16 DEB SSO 2024-06-09 21:46:58 0.0002506005 170.0 (m) DEBRIS

Associated space launch

The first soviet navigation system called Tsiklon consisted of Zaliv satellites in low earth orbit.

COSMOS 371 was lifted into orbit during the mission ‘Kosmos-3M | Zaliv 6’, on board a Kosmos-3M space rocket.

The launch took place on Oct. 12, 1970, 1:57 p.m. from 132/1 (132L).

For more information about the launch, click the button.

Launch to space Kosmos-3M | Zaliv 6
Kosmos-3M | Zaliv 6

Agency: N/A

Status: Launch Successful

Launch date: Oct. 12, 1970, 1:57 p.m. UTC

Rocket: Kosmos-3M

Launch pad: 132/1 (132L)

Location: Plesetsk Cosmodrome, Russian Federation

...

Latest news about this satellite

There are no fresh news available about this satellite. Check back as we update our databases every day.


Newsletter sign-up

Weekly statistics, charts and insights to help you stay on top of the space industry.